User: anonymous   Login
Location: Batang Balui
(2.7000°N, 113.7833°E)
Time: 12:20:34
(UTC+00:00)
Language:

COSMOS 2251 DEB - Orbit

View from above orbital plane
View from above orbital plane
View from above satellite
View from above satellite

Ground track
Ground track

The orbit data is extracted from the following two-line orbital elements,

1 35432U 93036AKA 23332.62058003  .00021726  00000-0  44956-2 0  9993
2 35432  74.0438  48.6002 0012739 302.9820  57.0121 14.60181188765621
Epoch (UTC): 28 November 2023 14:53:38
Eccentricity: 0.0012739
inclination: 74.0438°
perigee height: 683 km
apogee height: 701 km
right ascension of ascending node: 48.6002°
argument of perigee: 302.9820°
revolutions per day: 14.60181188
mean anomaly at epoch: 57.0121°
orbit number at epoch: 76562

The dashed part of the orbit path shows where the satellite is in the earth's shadow,  

DLR